Flag for South Africa Weather past 2 weeks in East London, South Africa

Now
63 °F

Passing clouds.


Feels Like: 63 °F
Forecast: 60 / 67 °F
Wind: 5 mph from West

Location: East London

Current Time: Aug 28, 2015 at 8:13:41 PM

Latest Report: Aug 28, 2015 at 7:02 PM


Visibility: N/A

Pressure: 30.01 "Hg

Humidity: 88%

Dew point: 59 °F

Location of East LondonLocation

Historic Weather in East London — Graph

°F

East London temperature yesterday

Maximum temperature yesterday: 72 °F (at 1:00 PM)
Minimum temperature yesterday: 57 °F (at 7:00 AM)
Average temperature yesterday: 66 °F

Past Weeks' High & Low Weather Summary

 TemperatureHumidityPressure
High90 °F (Aug 15, 1:45 PM)100% (Aug 17, 7:00 AM)30.36 "Hg (Aug 17, 7:00 AM)
Low48 °F (Aug 14, 5:00 AM)14% (Aug 15, 3:00 PM)29.83 "Hg (Aug 15, 3:00 PM)
Average64 °F82%30.11 "Hg
* Reported Aug 13 7:00 PM — Aug 28 7:02 PM, East London, Weather by CustomWeather, © 2015

Note: Actual official high and low records may vary slightly from our data, if they occured in-between our weather recording intervals... More about our weather records

Advertising

East London weather history for previous 24 hours

 ConditionsComfort  
Time TempWeatherWind HumidityBarometerVisibility
7:02 PM
Fri, Aug 28
63 °FPassing clouds.5 mph88%30.01 "HgN/A
6:00 PM63 °FPassing clouds.7 mph94%29.98 "HgN/A
5:00 PM64 °FPassing clouds.10 mph88%29.95 "HgN/A
4:00 PM66 °FScattered clouds.17 mph83%29.95 "HgN/A
3:00 PM66 °FPartly sunny.18 mph83%29.95 "HgN/A
2:00 PM68 °FPartly sunny.18 mph83%29.95 "HgN/A
1:54 PM68 °FPartly sunny.18 mph83%29.95 "HgN/A
1:00 PM68 °FScattered clouds.16 mph78%29.95 "HgN/A
12:00 PM68 °FScattered clouds.23 mph78%29.98 "HgN/A
11:00 AM70 °FPassing clouds.16 mph73%29.98 "HgN/A
10:00 AM72 °FSunny.9 mph83%29.95 "Hg10 mi
9:00 AM68 °FSunny.6 mph88%29.95 "Hg10 mi
8:00 AM64 °FClear.3 mph100%29.95 "Hg6 mi
7:00 AM61 °FClear.3 mph100%29.92 "Hg4 mi
6:00 AM61 °FPassing clouds.3 mph94%29.92 "HgN/A
5:00 AM63 °FPassing clouds.3 mph88%29.92 "HgN/A
8:00 PM
Thu, Aug 27
66 °FClear.5 mph94%30.01 "Hg10 mi
Weather by CustomWeather, © 2015

See weather overviewHow to use our weather pages